• In Belarus
  • List of Countries
  • For 7 days
  • Water Temperature
  • Satellite Maps
  • Weather Map
  • Weather Widgets
  • user-avatar
    Login

    Hourly Weather Heidelberg

    Today, 21 April, Sunday

    Time Temperature Precipitation Wind Pressure Humidity
    00:00 +14°C° 0 mm 2 mps 738 mmHg 62%
    01:00 +12°C° 0 mm 3 mps 738 mmHg 62%
    02:00 +13°C° 0 mm 2 mps 737 mmHg 63%
    03:00 +12°C° 0 mm 2 mps 737 mmHg 65%
    04:00 +10°C° 0 mm 2 mps 737 mmHg 66%
    05:00 +12°C° 0 mm 2 mps 736 mmHg 66%
    06:00 +12°C° 0 mm 2 mps 736 mmHg 65%
    07:00 +13°C° 0 mm 2 mps 736 mmHg 61%
    08:00 +15°C° 0 mm 2 mps 736 mmHg 54%
    09:00 +17°C° 0 mm 2 mps 736 mmHg 48%
    10:00 +19°C° 0 mm 2 mps 736 mmHg 41%
    11:00 +20°C° 0 mm 2 mps 735 mmHg 38%
    12:00 +21°C° 0 mm 3 mps 735 mmHg 35%
    13:00 +24°C° 0 mm 3 mps 735 mmHg 31%
    14:00 +24°C° 0 mm 3 mps 734 mmHg 32%
    15:00 +24°C° 0 mm 3 mps 734 mmHg 33%
    16:00 +24°C° 0 mm 3 mps 733 mmHg 33%
    17:00 +21°C° 0 mm 3 mps 733 mmHg 39%
    18:00 +20°C° 0 mm 3 mps 732 mmHg 44%
    19:00 +18°C° 0 mm 2 mps 732 mmHg 50%
    20:00 +17°C° 0 mm 2 mps 732 mmHg 51%
    21:00 +16°C° 0 mm 2 mps 732 mmHg 53%
    22:00 +14°C° 0 mm 2 mps 731 mmHg 55%
    23:00 +14°C° 0 mm 2 mps 731 mmHg 57%

    Tomorrow, 22 April, Monday

    Time Temperature Precipitation Wind Pressure Humidity
    00:00 +13°C° 0 mm 2 mps 731 mmHg 59%
    01:00 +12°C° 0 mm 2 mps 731 mmHg 61%
    02:00 +12°C° 0 mm 2 mps 731 mmHg 63%
    03:00 +10°C° 0 mm 2 mps 730 mmHg 65%
    04:00 +9°C° 0 mm 2 mps 730 mmHg 67%
    05:00 +10°C° 0 mm 2 mps 730 mmHg 66%
    06:00 +10°C° 0 mm 3 mps 729 mmHg 64%
    07:00 +10°C° 0 mm 3 mps 729 mmHg 63%
    08:00 +12°C° 0 mm 3 mps 729 mmHg 57%
    09:00 +14°C° 0 mm 4 mps 728 mmHg 52%
    10:00 +17°C° 0 mm 4 mps 728 mmHg 46%
    11:00 +19°C° 0 mm 5 mps 727 mmHg 43%
    12:00 +20°C° 0 mm 5 mps 727 mmHg 40%
    13:00 +21°C° 0 mm 5 mps 726 mmHg 38%
    14:00 +22°C° 0 mm 5 mps 726 mmHg 38%
    15:00 +22°C° 0 mm 5 mps 725 mmHg 37%
    16:00 +22°C° 0 mm 5 mps 724 mmHg 37%
    17:00 +21°C° 0 mm 5 mps 724 mmHg 42%
    18:00 +19°C° 0 mm 5 mps 724 mmHg 47%
    19:00 +17°C° 0 mm 5 mps 723 mmHg 52%
    20:00 +16°C° 0 mm 5 mps 723 mmHg 50%
    21:00 +14°C° 0 mm 6 mps 723 mmHg 49%
    22:00 +13°C° 0 mm 6 mps 723 mmHg 48%
    23:00 +13°C° 0 mm 6 mps 723 mmHg 53%

    Day after tomorrow, 23 April, Tuesday

    Time Temperature Precipitation Wind Pressure Humidity
    00:00 +12°C° 0 mm 5 mps 723 mmHg 57%
    01:00 +10°C° 0 mm 5 mps 722 mmHg 62%
    02:00 +11°C° 0 mm 4 mps 722 mmHg 63%
    03:00 +10°C° 0 mm 4 mps 721 mmHg 65%
    04:00 +10°C° 0 mm 4 mps 721 mmHg 66%
    05:00 +10°C° 0 mm 4 mps 721 mmHg 69%
    06:00 +10°C° 0 mm 4 mps 721 mmHg 71%
    07:00 +10°C° 0 mm 5 mps 721 mmHg 74%
    08:00 +12°C° 0 mm 4 mps 721 mmHg 70%
    09:00 +14°C° 0 mm 4 mps 720 mmHg 66%
    10:00 +15°C° 0 mm 4 mps 720 mmHg 62%
    11:00 +18°C° 0 mm 4 mps 720 mmHg 58%
    12:00 +19°C° 0 mm 3 mps 720 mmHg 54%
    13:00 +20°C° 0 mm 3 mps 720 mmHg 50%
    14:00 +21°C° 0 mm 2 mps 720 mmHg 48%
    15:00 +21°C° 0 mm 2 mps 719 mmHg 47%
    16:00 +23°C° 0 mm 1 mps 719 mmHg 45%
    17:00 +22°C° 0 mm 1 mps 719 mmHg 49%
    18:00 +21°C° 0 mm 1 mps 719 mmHg 54%
    19:00 +17°C° 0 mm 0 mps 719 mmHg 59%
    20:00 +18°C° 0 mm 1 mps 719 mmHg 62%
    21:00 +16°C° 0 mm 1 mps 720 mmHg 65%
    22:00 +15°C° 0 mm 1 mps 720 mmHg 68%
    23:00 +15°C° 0.2 mm 1 mps 721 mmHg 73%

    24 April, Wednesday

    Time Temperature Precipitation Wind Pressure Humidity
    00:00 +15°C° 0.2 mm 1 mps 721 mmHg 77%
    01:00 +15°C° 0.2 mm 1 mps 721 mmHg 81%
    02:00 +14°C° 0 mm 1 mps 722 mmHg 83%
    03:00 +14°C° 0 mm 2 mps 722 mmHg 85%
    04:00 +14°C° 0 mm 2 mps 723 mmHg 87%
    05:00 +14°C° 0 mm 2 mps 723 mmHg 84%
    06:00 +14°C° 0 mm 2 mps 724 mmHg 81%
    07:00 +15°C° 0 mm 2 mps 724 mmHg 78%
    08:00 +16°C° 0 mm 2 mps 725 mmHg 71%
    09:00 +18°C° 0 mm 2 mps 725 mmHg 64%
    10:00 +19°C° 0 mm 2 mps 726 mmHg 57%
    11:00 +20°C° 0 mm 2 mps 726 mmHg 53%
    12:00 +23°C° 0 mm 2 mps 726 mmHg 48%
    13:00 +24°C° 0 mm 2 mps 726 mmHg 43%
    14:00 +24°C° 0 mm 3 mps 726 mmHg 44%
    15:00 +24°C° 0 mm 3 mps 725 mmHg 45%
    16:00 +25°C° 0 mm 4 mps 725 mmHg 46%
    17:00 +23°C° 0 mm 4 mps 725 mmHg 51%
    18:00 +21°C° 0 mm 3 mps 724 mmHg 56%
    19:00 +20°C° 0 mm 3 mps 724 mmHg 61%
    20:00 +20°C° 0 mm 3 mps 725 mmHg 62%
    21:00 +19°C° 0 mm 3 mps 725 mmHg 63%
    22:00 +19°C° 0 mm 3 mps 725 mmHg 64%
    23:00 +17°C° 0 mm 4 mps 726 mmHg 65%

    25 April, Thursday

    Time Temperature Precipitation Wind Pressure Humidity
    00:00 +15°C° 0 mm 4 mps 726 mmHg 67%
    01:00 +13°C° 0 mm 4 mps 726 mmHg 69%
    02:00 +13°C° 0 mm 4 mps 727 mmHg 67%
    03:00 +12°C° 0 mm 3 mps 727 mmHg 66%
    04:00 +12°C° 0 mm 3 mps 728 mmHg 65%
    05:00 +13°C° 0 mm 2 mps 728 mmHg 64%
    06:00 +13°C° 0 mm 2 mps 728 mmHg 64%
    07:00 +13°C° 0 mm 2 mps 728 mmHg 63%
    08:00 +14°C° 0 mm 2 mps 729 mmHg 56%
    09:00 +16°C° 0 mm 2 mps 729 mmHg 49%
    10:00 +17°C° 0 mm 2 mps 729 mmHg 42%
    11:00 +19°C° 0 mm 2 mps 729 mmHg 42%
    12:00 +20°C° 0 mm 2 mps 728 mmHg 41%
    13:00 +21°C° 0 mm 3 mps 728 mmHg 40%
    14:00 +22°C° 0 mm 3 mps 728 mmHg 40%
    15:00 +22°C° 0 mm 3 mps 728 mmHg 41%
    16:00 +24°C° 0 mm 3 mps 727 mmHg 41%
    17:00 +21°C° 0.5 mm 3 mps 728 mmHg 50%
    18:00 +19°C° 0.5 mm 3 mps 728 mmHg 59%
    19:00 +17°C° 0.5 mm 3 mps 728 mmHg 68%
    20:00 +16°C° 0.6 mm 3 mps 728 mmHg 71%
    21:00 +14°C° 0.6 mm 3 mps 728 mmHg 73%
    22:00 +13°C° 0.6 mm 3 mps 729 mmHg 75%
    23:00 +12°C° 0 mm 3 mps 729 mmHg 76%

    26 April, Friday

    Time Temperature Precipitation Wind Pressure Humidity
    00:00 +12°C° 0 mm 3 mps 729 mmHg 76%
    01:00 +11°C° 0 mm 3 mps 730 mmHg 76%
    02:00 +10°C° 0.1 mm 4 mps 730 mmHg 78%
    03:00 +10°C° 0.1 mm 4 mps 730 mmHg 79%
    04:00 +8°C° 0.1 mm 4 mps 730 mmHg 81%
    05:00 +8°C° 0.5 mm 4 mps 731 mmHg 83%
    06:00 +8°C° 0.5 mm 4 mps 731 mmHg 84%
    07:00 +7°C° 0.5 mm 4 mps 732 mmHg 86%
    08:00 +7°C° 0.5 mm 4 mps 733 mmHg 84%
    09:00 +8°C° 0.5 mm 4 mps 733 mmHg 83%
    10:00 +8°C° 0.5 mm 4 mps 734 mmHg 82%
    11:00 +9°C° 0.1 mm 5 mps 734 mmHg 75%
    12:00 +10°C° 0.1 mm 5 mps 735 mmHg 68%
    13:00 +12°C° 0.1 mm 5 mps 735 mmHg 62%
    14:00 +12°C° 0.1 mm 5 mps 735 mmHg 61%
    15:00 +12°C° 0.1 mm 4 mps 735 mmHg 61%
    16:00 +12°C° 0.1 mm 4 mps 735 mmHg 60%
    17:00 +12°C° 0.1 mm 3 mps 735 mmHg 63%
    18:00 +11°C° 0.1 mm 3 mps 735 mmHg 66%
    19:00 +11°C° 0.1 mm 3 mps 736 mmHg 69%
    20:00 +10°C° 0 mm 3 mps 736 mmHg 72%
    21:00 +10°C° 0 mm 3 mps 737 mmHg 75%
    22:00 +9°C° 0 mm 3 mps 737 mmHg 78%
    23:00 +8°C° 0 mm 3 mps 738 mmHg 80%
    Show more